Vertical_Velocity
5 -0 0 -2 1 1 1 1 1 0 1 1 2 1 0 -1 3 -3 -1 0 1 0 3 2 -0 -1 0 -2 -0 2 1 -1 -1
5 0 -1 -0 -1 -0 -0 -1 0 -2 0 -1 1 -4 -2 0 -1 -1 -2 -0 -1 -1 -1 1 -0 -1 -0 -3 -1 -3 -4 -2 -1
0 -0 -1 -1 0 2 -1 -1 0 -0 -1 1 -1 -0 -2 1 0 1 -2 -1 -2 -2 -1 -0 -2 -2 -1 -1 -1 -2 -2 0 -1
1 1 -2 0 -1 -1 -1 -0 2 -0 -2 3 -4 2 -2 -1 1 1 -0 -1 -2 -1 -2 -0 1 -1 -1 -1 -1 0 -0 -3 -3
2 1 -1 1 -1 -0 1 -0 1 -0 -2 -2 -2 2 2 0 -1 2 -0 0 0 0 0 -0 -1 8 11 7 1 1 -2 -0 -1
1 2 -1 1 0 1 1 -0 -2 1 -0 -2 -1 2 -2 -0 -2 0 -0 -2 -1 -0 0 0 -0 -1 -2 0 5 5 7 1 0
2 0 0 -0 0 -1 0 1 -1 -1 1 2 -3 -1 -2 0 -1 -1 -0 -1 -2 -2 -2 -0 2 0 -1 1 -1 -2 1 2 4
-0 2 1 -0 -0 -4 -0 -0 -1 -0 -2 -2 1 -2 -0 -1 -1 -1 -0 -2 -0 1 1 1 -0 -2 1 -2 -3 0 -0 0 1
0 2 -0 0 -4 1 1 1 -2 1 -4 -1 1 -2 -1 -1 -0 0 1 0 3 -0 -1 -0 -3 2 3 -1 -2 2 -0 1 0
1 -2 -0 -2 -1 -1 -2 -1 0 -2 1 1 0 -1 -1 -0 0 1 1 0 -1 0 -1 -3 4 -3 -1 1 -0 -1 0 -1 -1
2 1 -2 1 1 -1 1 -1 1 -1 0 -0 1 -2 -2 -1 -1 0 0 1 2 2 0 1 -2 -1 1 -2 -3 -1 -1 1 1
3 -2 -1 1 -2 0 0 1 -1 -1 2 0 3 -1 -2 -0 1 1 1 1 1 -0 -1 -1 -1 0 0 -0 0 1 0 -0 0
-2 2 -2 0 1 -2 -1 2 -1 -0 1 1 1 -0 -0 1 2 1 1 1 1 0 -1 -2 -2 -1 -1 -1 -1 -0 -1 -0 2
-3 -1 1 1 -1 -1 -1 -1 -1 -2 -0 1 -2 2 -1 0 1 1 1 -1 0 -0 1 1 -1 -2 -2 -1 -1 -0 -2 -2 -2
-1 1 1 -1 0 -3 -2 -3 -4 -1 -2 1 -1 -0 -1 1 2 1 1 -1 1 -0 -2 -1 -1 -1 -2 -1 -1 -0 -1 -1 -1
1 0 -1 0 -1 -2 -3 -1 0 2 -3 -5 1 -1 0 0 1 1 0 1 1 1 1 -1 -2 -3 -1 -1 -1 -0 -1 -1 0
0 -1 -0 -0 -3 -3 -0 -0 -3 -3 -4 -3 -3 -5 -0 0 0 -1 0 -1 -1 -1 0 -2 -0 -0 -2 -1 -2 -2 -2 -2 -0
-0 -1 -2 -2 -2 -0 -2 -4 -1 -1 -1 -2 -4 0 -2 -13 -4 -9 1 -2 -1 -2 -3 -3 -3 -2 -3 -3 -3 -2 -3 -3 -2
-1 -2 -2 -2 -1 -2 -2 -2 -1 -2 -2 -2 -2 -1 -1 -1 -3 -2 -3 -3 -6 -5 -4 -6 -3 -2 -3 -3 -2 -2 -0 0 -1
-0 -1 -2 -0 -1 -2 0 -3 -1 -1 -2 -3 -4 -3 -1 1 1 -9 -6 2 -1 1 -0 -1 -3 -3 -4 -2 -0 -1 -3 -6 -5
Height
1534 1534 1534 1535 1534 1534 1533 1532 1532 1531 1531 1531 1530 1530 1529 1529 1527 1527 1526 1526 1527 1527 1526 1526 1525 1525 1525 1524 1524 1524 1524 1525 1525
1533 1534 1535 1535 1535 1534 1533 1533 1532 1532 1531 1531 1530 1530 1530 1528 1527 1526 1525 1525 1525 1525 1524 1523 1523 1523 1523 1523 1522 1521 1521 1521 1522
1533 1534 1535 1535 1535 1534 1533 1533 1532 1532 1532 1531 1531 1529 1529 1528 1527 1525 1524 1523 1523 1523 1523 1522 1521 1521 1520 1520 1520 1519 1518 1518 1518
1533 1534 1535 1535 1534 1534 1534 1534 1533 1531 1532 1531 1530 1529 1527 1527 1526 1524 1522 1521 1521 1521 1521 1521 1520 1519 1518 1518 1517 1517 1516 1515 1514
1533 1534 1534 1534 1534 1534 1533 1533 1532 1531 1531 1530 1528 1528 1526 1524 1524 1522 1520 1519 1519 1519 1518 1518 1517 1516 1515 1514 1514 1513 1513 1512 1511
1532 1533 1533 1533 1533 1533 1533 1532 1531 1530 1530 1528 1527 1526 1525 1523 1522 1521 1519 1518 1517 1517 1516 1515 1514 1513 1512 1511 1510 1510 1509 1509 1508
1532 1532 1532 1533 1532 1532 1532 1530 1530 1529 1528 1526 1525 1523 1522 1520 1520 1519 1517 1516 1515 1515 1514 1513 1512 1510 1509 1508 1507 1506 1506 1505 1504
1532 1531 1531 1531 1531 1531 1530 1529 1529 1527 1524 1524 1522 1520 1519 1518 1517 1515 1513 1512 1512 1512 1511 1510 1508 1507 1507 1504 1503 1502 1501 1501 1499
1530 1531 1530 1530 1530 1530 1529 1527 1527 1525 1522 1522 1519 1517 1515 1514 1513 1511 1509 1509 1509 1508 1507 1506 1506 1506 1504 1502 1501 1499 1498 1497 1496
1529 1529 1529 1529 1528 1528 1528 1525 1524 1522 1520 1518 1515 1512 1511 1510 1509 1507 1506 1506 1505 1505 1504 1503 1504 1502 1501 1500 1498 1497 1496 1494 1493
1527 1527 1528 1528 1527 1526 1525 1523 1522 1520 1516 1514 1510 1508 1507 1506 1506 1505 1504 1505 1504 1503 1502 1502 1500 1499 1499 1496 1495 1494 1493 1492 1490
1526 1526 1526 1526 1525 1524 1523 1521 1518 1516 1514 1511 1507 1505 1504 1504 1503 1503 1503 1503 1502 1501 1500 1499 1497 1496 1495 1493 1492 1490 1489 1487 1486
1524 1525 1524 1524 1523 1522 1521 1518 1516 1514 1511 1508 1504 1502 1501 1501 1501 1501 1501 1501 1499 1498 1497 1495 1494 1492 1491 1489 1487 1485 1483 1482 1480
1522 1524 1522 1522 1521 1520 1519 1515 1513 1511 1508 1506 1502 1499 1498 1498 1499 1499 1499 1498 1497 1496 1494 1492 1489 1487 1486 1484 1482 1480 1477 1475 1474
1520 1522 1521 1521 1520 1518 1516 1514 1511 1507 1505 1502 1500 1496 1497 1496 1497 1497 1496 1495 1493 1492 1490 1488 1485 1483 1480 1478 1476 1473 1471 1469 1468
1518 1519 1520 1520 1518 1517 1514 1512 1509 1505 1501 1500 1499 1495 1495 1494 1495 1494 1493 1491 1490 1489 1486 1484 1481 1477 1475 1472 1469 1466 1464 1462 1461
1516 1517 1517 1517 1515 1514 1512 1510 1507 1502 1500 1497 1494 1494 1494 1493 1492 1490 1490 1488 1487 1486 1482 1480 1477 1473 1469 1466 1463 1460 1457 1455 1453
1513 1514 1515 1515 1513 1512 1510 1507 1506 1502 1499 1496 1497 1495 1494 1490 1488 1488 1484 1484 1481 1478 1475 1473 1470 1466 1462 1458 1455 1452 1449 1447 1446
1511 1512 1513 1512 1511 1509 1507 1504 1502 1500 1498 1496 1495 1494 1493 1490 1482 1479 1477 1475 1472 1470 1468 1466 1463 1459 1455 1452 1448 1445 1442 1440 1439
1509 1509 1510 1510 1509 1507 1504 1502 1500 1497 1496 1494 1493 1492 1490 1488 1484 1474 1470 1467 1464 1461 1459 1457 1454 1451 1447 1444 1440 1437 1434 1432 1431